[[{"header":{"parameterUnit":"m.s-1","parameterCategory":1,"la1":30.2991,"la2":30.254,"lo1":-89.0895,"lo2":-89.0444,"dy":0.0017,"dx":0.0017,"nx":28,"ny":28,"refTime":"2024-06-04T21:00:00:Z","depth":0,"parameterNumber":2,"parameterNumberName":"U-component_of_WINDS"},"data":[0,0,0,0,0,0,0,0,0,0,0,0,0,0,0,0,0,0,0,0,0,0,0,0,0,0,0,0,0,0,0,0,0,0,0,0,0,0,0,0,0,0,0,0,0,0,0,0,0,0,0,0,0,0,0,0,0,0,-1.1969,-1.1969,0,-1.2026,-1.2026,-1.2027,-1.2034,-1.2034,-1.2033,-1.2033,-1.2093,-1.2095,-1.2097,0,0,0,0,0,0,0,0,0,0,0,0,0,-1.187,-1.1872,-1.1969,-1.197,-1.197,-1.2026,-1.2026,-1.2027,-1.2034,-1.2034,-1.2033,-1.2032,-1.2092,-1.2094,-1.2097,0,0,0,0,0,0,0,0,0,0,0,0,0,-1.1918,-1.1872,-1.1969,-1.198,-1.1982,-1.2025,-1.2026,-1.2027,-1.2035,-1.2034,-1.2033,-1.2032,-1.2091,-1.2094,-1.2097,-1.2133,0,0,-1.2107,-1.2108,0,0,0,0,0,0,0,0,-1.1916,-1.1922,-1.1978,-1.198,-1.1982,-1.2022,-1.2013,-1.2063,-1.2035,-1.2015,-1.2033,-1.2032,-1.207,-1.2075,-1.2087,-1.2136,-1.2139,-1.2107,-1.2109,-1.211,-1.2111,0,0,0,0,0,0,0,-1.1912,-1.192,-1.1991,-1.1979,-1.1981,-1.1984,-1.199,-1.2023,-1.2046,-1.2016,-1.2017,-1.2024,-1.2071,-1.2084,-1.2089,-1.2139,-1.2107,-1.211,-1.2112,-1.2113,-1.2223,-1.2224,0,0,0,0,0,0,-1.1906,-1.1917,-1.199,-1.1993,-1.1946,-1.1986,-1.1993,-1.201,-1.2046,-1.2051,-1.2024,-1.2024,-1.2079,-1.2085,-1.2091,-1.2137,-1.211,-1.2113,-1.2115,-1.2222,-1.2223,-1.2224,0,0,0,0,0,0,-1.1904,-1.1913,-1.1987,-1.1955,-1.1965,-1.1989,-1.2008,-1.2011,-1.2025,-1.2052,-1.2056,-1.2033,-1.2079,-1.2086,-1.2123,-1.2139,-1.2115,-1.2118,-1.2221,-1.2222,-1.2223,-1.2227,0,0,0,0,0,0,-1.1901,-1.1912,-1.1925,-1.1955,-1.1966,-1.2018,-1.2009,-1.2013,-1.203,-1.203,-1.2062,-1.2066,-1.2079,-1.2118,-1.2126,-1.2143,-1.212,-1.2219,-1.2221,-1.2223,-1.2226,-1.2229,-1.2231,0,0,0,0,0,-1.1898,-1.1924,-1.1926,-1.1934,-1.1983,-1.2018,-1.2025,-1.2038,-1.2031,-1.2045,-1.2063,-1.2065,-1.2136,-1.2122,-1.2131,-1.2148,-1.2218,-1.2221,-1.2223,-1.2225,-1.2228,-1.2231,0,0,0,0,0,0,-1.1895,-1.1928,-1.193,-1.1967,-1.199,-1.2019,-1.2037,-1.2041,-1.2067,-1.2066,-1.2082,-1.2089,-1.2125,-1.2141,-1.2125,-1.2186,-1.2176,-1.2181,-1.2175,-1.2178,-1.2181,-1.2177,-1.2123,0,0,0,0,0,-1.1899,-1.1923,-1.1951,-1.1981,-1.1992,-1.2013,-1.2029,-1.2037,-1.2062,-1.2072,-1.2092,-1.2116,-1.2144,-1.2162,-1.2189,-1.2228,-1.2236,-1.2245,-1.2248,-1.225,-1.2253,-1.2277,-1.2282,-1.2232,-1.2232,-1.2232,0,0,-1.1906,-1.1927,-1.1942,-1.1981,-1.2,-1.2026,-1.2021,-1.2049,-1.2069,-1.2076,-1.2112,-1.2128,-1.2156,-1.2195,-1.2213,-1.2209,-1.2269,-1.2253,-1.2254,-1.2257,-1.228,-1.2284,-1.2289,-1.2233,-1.2233,-1.2233,0,0,-1.1934,-1.1952,-1.1979,-1.1998,-1.2027,-1.2041,-1.2047,-1.2077,-1.2088,-1.2124,-1.213,-1.2155,-1.2202,-1.2223,-1.2239,-1.2277,-1.228,-1.2285,-1.2299,-1.2322,-1.2326,-1.233,-1.2344,-1.2349,-1.2289,-1.2289,-1.2289,0,-1.194,-1.198,-1.1993,-1.2021,-1.2039,-1.2046,-1.2075,-1.2093,-1.2129,-1.2142,-1.2136,-1.2197,-1.2216,-1.226,-1.227,-1.2283,-1.2292,-1.2282,-1.2324,-1.2328,-1.2331,-1.2346,-1.2351,-1.2289,-1.2289,-1.2289,-1.2289,0,-1.1987,-1.2014,-1.2033,-1.2068,-1.2087,-1.2115,-1.2134,-1.2153,-1.216,-1.2175,-1.2213,-1.2237,-1.2269,-1.228,-1.2287,-1.2326,-1.2323,-1.2321,-1.2311,-1.2336,-1.235,-1.2355,-1.229,-1.229,-1.2289,-1.2289,0,0,-1.2014,-1.2056,-1.2063,-1.2079,-1.2112,-1.2134,-1.2163,-1.2195,-1.2211,-1.2236,-1.2262,-1.2303,-1.2301,-1.232,-1.233,-1.235,-1.238,-1.2346,-1.2347,-1.2352,-1.2425,-1.2427,-1.2433,-1.2382,-1.2383,-1.2384,-1.2423,0,-1.2046,-1.2098,-1.2111,-1.2156,-1.2182,-1.219,-1.2216,-1.224,-1.2255,-1.228,-1.2297,-1.2326,-1.2321,-1.2333,-1.2353,-1.2372,-1.2395,-1.2369,-1.2408,-1.2409,-1.2401,-1.244,-1.2442,-1.2477,-1.2429,-1.2429,-1.243,0,-1.2091,-1.2117,-1.2164,-1.2194,-1.2206,-1.2228,-1.2259,-1.2283,-1.2311,-1.232,-1.2342,-1.235,-1.2383,-1.2372,-1.2417,-1.2399,-1.2416,-1.2428,-1.243,-1.2434,-1.2421,-1.2446,-1.2489,-1.2495,-1.2438,-1.2438,-1.2437,0,-1.2107,-1.2154,-1.2188,-1.2202,-1.2238,-1.2254,-1.227,-1.2297,-1.2315,-1.2343,-1.2355,-1.2386,-1.2403,-1.2428,-1.2445,-1.2435,-1.249,-1.2479,-1.2499,-1.2499,-1.2511,-1.251,-1.2557,-1.252,-1.252,-1.252,-1.252,0,-1.2143,-1.2171,-1.2196,-1.2218,-1.2251,-1.2266,-1.2299,-1.2315,-1.2339,-1.2365,-1.2374,-1.2398,-1.2418,-1.2446,-1.2459,-1.2496,-1.2503,-1.2513,-1.2516,-1.2512,-1.2511,-1.2524,-1.2522,-1.2522,-1.2521,-1.2521,-1.2521,0,-1.2167,-1.2184,-1.2223,-1.2254,-1.2263,-1.2286,-1.2313,-1.2335,-1.235,-1.2383,-1.2391,-1.2416,-1.2449,-1.2468,-1.2509,-1.2518,-1.2559,-1.2561,-1.255,-1.2551,-1.2571,-1.2569,-1.2629,-1.2638,-1.2594,-1.2594,-1.2594,0,-1.2188,-1.2211,-1.2244,-1.2262,-1.2278,-1.2306,-1.2325,-1.2342,-1.2362,-1.2396,-1.2414,-1.2447,-1.2474,-1.2526,-1.2549,-1.2581,-1.2584,-1.2603,-1.2589,-1.2585,-1.2586,-1.2584,-1.2587,-1.2605,-1.2605,-1.2606,-1.2606,0,-1.2225,-1.2233,-1.226,-1.229,-1.2313,-1.2338,-1.2363,-1.2377,-1.2398,-1.2421,-1.2454,-1.2475,-1.2518,-1.2551,-1.2585,-1.2603,-1.2609,-1.261,-1.2617,-1.2614,-1.2607,-1.2612,-1.2557,-1.2609,-1.2609,-1.2608,-1.2608,-1.2608,-1.225,-1.227,-1.2297,-1.2328,-1.2348,-1.2371,-1.2394,-1.2412,-1.244,-1.2475,-1.2484,-1.2519,-1.2548,-1.2594,-1.2613,-1.2642,-1.2639,-1.2648,-1.265,-1.2653,-1.2654,-1.2601,-1.2648,-1.2648,-1.2648,-1.2648,-1.2648,0,-1.2288,-1.2306,-1.2333,-1.2368,-1.2392,-1.2395,-1.2423,-1.2443,-1.2474,-1.25,-1.2527,-1.2566,-1.2598,-1.2624,-1.2657,-1.2676,-1.2679,-1.2684,-1.2683,-1.2688,-1.2654,-1.2645,-1.2681,-1.2681,-1.2681,-1.2681,-1.2681,-1.2681,-1.2311,-1.2346,-1.2358,-1.2404,-1.2422,-1.2457,-1.2473,-1.2495,-1.2516,-1.2559,-1.2586,-1.2602,-1.2628,-1.2664,-1.2694,-1.2701,-1.2714,-1.2718,-1.2725,-1.2693,-1.269,-1.2686,-1.2679,-1.272,-1.272,-1.2757,-1.2757,-1.2758]},{"header":{"parameterUnit":"m.s-1","parameterCategory":1,"la1":30.2991,"la2":30.254,"lo1":-89.0895,"lo2":-89.0444,"dy":0.0017,"dx":0.0017,"nx":28,"ny":28,"refTime":"2024-06-04T21:00:00:Z","depth":0,"parameterNumber":3,"parameterNumberName":"V-component_of_WINDS"},"data":[0,0,0,0,0,0,0,0,0,0,0,0,0,0,0,0,0,0,0,0,0,0,0,0,0,0,0,0,0,0,0,0,0,0,0,0,0,0,0,0,0,0,0,0,0,0,0,0,0,0,0,0,0,0,0,0,0,0,6.0626,6.0627,0,6.0739,6.074,6.0741,6.0708,6.0706,6.0704,6.0702,6.0812,6.0817,6.0822,0,0,0,0,0,0,0,0,0,0,0,0,0,6.0378,6.0382,6.0626,6.0627,6.0629,6.0738,6.074,6.0741,6.0709,6.0706,6.0703,6.0701,6.081,6.0816,6.0822,0,0,0,0,0,0,0,0,0,0,0,0,0,6.0487,6.0384,6.0626,6.0626,6.0627,6.0738,6.074,6.0742,6.0709,6.0706,6.0703,6.0699,6.0808,6.0816,6.0823,6.0939,0,0,6.0847,6.085,0,0,0,0,0,0,0,0,6.0481,6.0496,6.0624,6.0626,6.0627,6.0706,6.0693,6.0808,6.071,6.0678,6.0702,6.0698,6.0779,6.0789,6.0818,6.0945,6.0949,6.0847,6.0852,6.0855,6.0857,0,0,0,0,0,0,0,6.0474,6.0491,6.067,6.0626,6.0628,6.0619,6.063,6.0714,6.0746,6.0681,6.0678,6.0693,6.0779,6.081,6.082,6.0951,6.0847,6.0854,6.0858,6.0861,6.1179,6.1182,0,0,0,0,0,0,6.0466,6.0485,6.0667,6.0674,6.0545,6.0626,6.0639,6.0684,6.0745,6.0752,6.0695,6.0691,6.0799,6.0811,6.0824,6.0964,6.0855,6.0862,6.0867,6.1175,6.1179,6.1184,0,0,0,0,0,0,6.046,6.0482,6.0662,6.0579,6.0601,6.0634,6.0685,6.0688,6.0719,6.0757,6.0762,6.0721,6.0797,6.0813,6.0911,6.0967,6.0866,6.0873,6.117,6.1176,6.1181,6.1244,0,0,0,0,0,0,6.0453,6.048,6.0526,6.058,6.0606,6.075,6.0688,6.0693,6.0733,6.0728,6.0783,6.0788,6.0795,6.09,6.0919,6.0976,6.0879,6.1165,6.1173,6.118,6.1237,6.1252,6.1264,0,0,0,0,0,6.0445,6.0538,6.0529,6.0551,6.0664,6.0753,6.0767,6.0775,6.0738,6.0783,6.0807,6.0786,6.0958,6.091,6.0931,6.0991,6.1162,6.1171,6.1179,6.1232,6.1249,6.1263,0,0,0,0,0,0,6.0488,6.0545,6.0535,6.065,6.0697,6.0747,6.0805,6.0793,6.085,6.0843,6.0848,6.0861,6.0962,6.0986,6.0932,6.1107,6.1054,6.1067,6.1087,6.1104,6.1116,6.1108,6.0885,0,0,0,0,0,6.0511,6.058,6.0626,6.0722,6.0747,6.0772,6.0811,6.0813,6.0861,6.088,6.0911,6.0958,6.1022,6.1064,6.1125,6.1241,6.1252,6.1292,6.1306,6.1316,6.1327,6.139,6.1408,6.1212,6.1212,6.1212,0,0,6.0559,6.0599,6.0642,6.0732,6.0769,6.0839,6.0789,6.0865,6.0916,6.0891,6.0986,6.1011,6.1063,6.1171,6.1219,6.1194,6.1384,6.1327,6.1335,6.1341,6.14,6.1419,6.1435,6.1218,6.1217,6.1216,0,0,6.0682,6.0719,6.0804,6.0842,6.0899,6.0915,6.0935,6.0988,6.1004,6.11,6.1083,6.1143,6.1254,6.1292,6.1326,6.1463,6.1446,6.1483,6.1551,6.1612,6.1627,6.1641,6.169,6.1707,6.1494,6.1494,6.1494,0,6.0733,6.084,6.0848,6.0926,6.0966,6.0949,6.1033,6.1069,6.1143,6.117,6.1141,6.128,6.1314,6.1429,6.1463,6.1491,6.1514,6.1477,6.1625,6.1639,6.1652,6.1698,6.1716,6.1498,6.1498,6.1498,6.1497,0,6.09,6.0974,6.1035,6.1108,6.1155,6.1236,6.1255,6.1301,6.1299,6.1318,6.1415,6.1455,6.1524,6.1552,6.155,6.1668,6.165,6.1623,6.1571,6.1674,6.1718,6.1736,6.1504,6.1503,6.1502,6.1501,0,0,6.1053,6.113,6.1153,6.1186,6.1247,6.1304,6.1383,6.1453,6.1492,6.1543,6.1609,6.1703,6.1679,6.1717,6.1719,6.1773,6.1879,6.1739,6.174,6.1763,6.201,6.203,6.205,6.1868,6.1872,6.1874,6.2006,0,6.1181,6.1323,6.1332,6.146,6.1528,6.1512,6.1582,6.1626,6.1646,6.1705,6.1726,6.1793,6.1756,6.1779,6.1831,6.1855,6.1928,6.1846,6.1928,6.1931,6.1915,6.2073,6.2094,6.2216,6.2023,6.2026,6.2028,0,6.1349,6.1407,6.1542,6.1594,6.1623,6.1685,6.1749,6.1807,6.1856,6.1867,6.191,6.1905,6.1985,6.193,6.204,6.1984,6.2018,6.2035,6.204,6.2047,6.1985,6.2084,6.2255,6.2273,6.2055,6.2053,6.2051,0,6.1446,6.1558,6.1653,6.1682,6.1745,6.1789,6.1817,6.1864,6.1905,6.196,6.1987,6.2051,6.2085,6.2134,6.2145,6.2105,6.2255,6.2201,6.2265,6.2265,6.2297,6.2294,6.2475,6.232,6.232,6.2319,6.2319,0,6.1587,6.167,6.1698,6.1756,6.1848,6.1858,6.1948,6.1973,6.2015,6.2077,6.2067,6.2125,6.2137,6.2197,6.2207,6.2296,6.2312,6.2321,6.2323,6.2322,6.2321,6.2344,6.2336,6.2324,6.2323,6.2322,6.2321,0,6.1711,6.1733,6.1836,6.1888,6.1903,6.1968,6.2012,6.2068,6.2086,6.2165,6.2184,6.2213,6.2283,6.23,6.2383,6.2389,6.2495,6.2488,6.2478,6.2478,6.254,6.2534,6.2741,6.2769,6.2597,6.2598,6.26,0,6.18,6.1864,6.1923,6.1965,6.1996,6.2062,6.2105,6.2117,6.2161,6.2222,6.227,6.234,6.2396,6.2509,6.2536,6.2599,6.2594,6.2662,6.2603,6.26,6.2594,6.259,6.2596,6.2673,6.2675,6.2676,6.2678,0,6.1955,6.1962,6.2025,6.2091,6.2142,6.2194,6.2244,6.2278,6.2296,6.2346,6.2419,6.2463,6.2548,6.2617,6.2681,6.2708,6.2696,6.2696,6.2714,6.2714,6.2705,6.271,6.2508,6.2691,6.269,6.2689,6.2688,6.2688,6.2063,6.2119,6.217,6.2239,6.2278,6.2325,6.238,6.2406,6.2467,6.2539,6.2542,6.2621,6.2668,6.2754,6.2785,6.2845,6.2824,6.285,6.2857,6.2863,6.2868,6.2697,6.2857,6.2857,6.2856,6.2856,6.2856,0,6.2217,6.2249,6.2313,6.2384,6.2438,6.2424,6.2478,6.2524,6.2594,6.264,6.2696,6.2779,6.2846,6.2879,6.2945,6.2987,6.2983,6.3004,6.3,6.3007,6.2884,6.2862,6.3006,6.3006,6.3006,6.3006,6.3006,6.3006,6.2304,6.2397,6.2411,6.2523,6.2554,6.2633,6.2665,6.2708,6.2745,6.2839,6.2895,6.2916,6.2957,6.3026,6.3086,6.3094,6.3118,6.3142,6.3147,6.3031,6.3015,6.3001,6.298,6.3147,6.3147,6.3264,6.3265,6.3266]}]]